Wrangell, AK

2:36 PM AKDT on March 30, 2017 (GMT -0800)
Wrangell

Weather History for PAWG - May, 2013

Change the Weather History Date:

Thursday, May 23, 2013

  Actual Average Record
Temperature  
Mean Temperature 54 °F -  
Max Temperature 62 °F 57 °F 72 °F (1969)
Min Temperature 46 °F 40 °F 33 °F (1972)
Degree Days  
Heating Degree Days 11    
Growing Degree Days 4 (Base 50)    
Moisture  
Dew Point 38 °F    
Average Humidity 54    
Maximum Humidity 71    
Minimum Humidity 39    
Precipitation  
Precipitation 0.00 in - - ()
Sea Level Pressure  
Sea Level Pressure 29.97 in    
Wind  
Wind Speed 5 mph (WNW)    
Max Wind Speed 10 mph    
Max Gust Speed -    
Visibility 10 miles    
Events      
Averages and records for this station are not official NWS values.
T = Trace of Precipitation, MM = Missing Value Source: NWS Daily Summary

Daily Weather History Graph

Daily Weather History Graph

Search for Another Location

Airport or City:

Trip Planner

Search our weather history database for the weather conditions in past years. The results will help you decide how hot, cold, wet, or windy it might be!

Date:

Astronomy

May. 23, 2013 Rise Set
Actual Time 4:19 AM AKDT 9:14 PM AKDT
Civil Twilight 3:24 AM AKDT 10:09 PM AKDT
Nautical Twilight 1:41 AM AKDT 11:56 PM AKDT
Astronomical Twilight Sun does not rise Sun does not rise
Moon 7:40 PM AKDT (5/23) 3:31 AM AKDT (5/23)
Length of Visible Light 18h 45m
Length of Day
16h 54m
Waxing Gibbous, 97% of the Moon is Illuminated
May 23
Waxing Gibbous
May 24
Full
May 31
Last Quarter
Jun 8
New
Jun 16
First Quarter

Hourly Weather History & Observations

Time (AKDT) Temp. Windchill Dew Point Humidity Pressure Visibility Wind Dir Wind Speed Gust Speed Precip Events Conditions
12:16 AM 51.8 °F - 37.4 °F 58% 30.03 in 10.0 mi NW 4.6 mph - N/A   Clear
12:36 AM 51.8 °F - 35.6 °F 54% 30.03 in 10.0 mi West 5.8 mph - N/A   Clear
12:56 AM 50.0 °F - 35.6 °F 58% 30.03 in 10.0 mi West 5.8 mph - N/A   Clear
1:16 AM 48.2 °F - 37.4 °F 66% 30.03 in 10.0 mi West 3.5 mph - N/A   Clear
1:36 AM 48.2 °F - 37.4 °F 66% 30.03 in 10.0 mi West 4.6 mph - N/A   Clear
1:56 AM 48.2 °F - 37.4 °F 66% 30.03 in 10.0 mi Calm Calm - N/A   Clear
2:16 AM 46.4 °F - 35.6 °F 66% 30.03 in 10.0 mi Calm Calm - N/A   Clear
2:36 AM 48.2 °F - 35.6 °F 62% 30.02 in 10.0 mi NW 5.8 mph - N/A   Clear
2:56 AM 46.4 °F 44.3 °F 35.6 °F 66% 30.02 in 10.0 mi WSW 4.6 mph - N/A   Clear
3:16 AM 48.2 °F - 35.6 °F 62% 30.02 in 10.0 mi WSW 4.6 mph - N/A   Clear
3:36 AM 46.4 °F 45.2 °F 35.6 °F 66% 30.02 in 10.0 mi West 3.5 mph - N/A   Clear
3:56 AM 46.4 °F 45.2 °F 37.4 °F 71% 30.02 in 10.0 mi WNW 3.5 mph - N/A   Clear
4:16 AM 46.4 °F 43.5 °F 35.6 °F 66% 30.01 in 10.0 mi WSW 5.8 mph - N/A   Clear
4:36 AM 46.4 °F 43.5 °F 35.6 °F 66% 30.01 in 10.0 mi WSW 5.8 mph - N/A   Clear
4:56 AM 46.4 °F 45.2 °F 35.6 °F 66% 30.01 in 10.0 mi West 3.5 mph - N/A   Clear
5:16 AM 46.4 °F 44.3 °F 35.6 °F 66% 30.01 in 10.0 mi West 4.6 mph - N/A   Clear
5:36 AM 46.4 °F 43.5 °F 35.6 °F 66% 30.01 in 10.0 mi West 5.8 mph - N/A   Clear
5:56 AM 48.2 °F - 35.6 °F 62% 30.01 in 10.0 mi West 4.6 mph - N/A   Clear
6:16 AM 48.2 °F - 35.6 °F 62% 30.01 in 10.0 mi WNW 4.6 mph - N/A   Clear
6:36 AM 48.2 °F - 35.6 °F 62% 30.01 in 10.0 mi WNW 6.9 mph - N/A   Clear
6:56 AM 48.2 °F - 35.6 °F 62% 30.01 in 10.0 mi WNW 5.8 mph - N/A   Clear
7:16 AM 48.2 °F - 37.4 °F 66% 30.01 in 10.0 mi WNW 4.6 mph - N/A   Clear
7:36 AM 48.2 °F - 37.4 °F 66% 30.00 in 10.0 mi West 3.5 mph - N/A   Clear
7:56 AM 50.0 °F - 37.4 °F 62% 30.00 in 10.0 mi West 4.6 mph - N/A   Clear
8:16 AM 51.8 °F - 37.4 °F 58% 30.00 in 10.0 mi WNW 6.9 mph - N/A   Clear
8:36 AM 51.8 °F - 37.4 °F 58% 29.99 in 10.0 mi WNW 5.8 mph - N/A   Clear
8:56 AM 51.8 °F - 37.4 °F 58% 29.99 in 10.0 mi West 4.6 mph - N/A   Clear
9:16 AM 51.8 °F - 37.4 °F 58% 29.98 in 10.0 mi WNW 4.6 mph - N/A   Clear
9:36 AM 53.6 °F - 37.4 °F 54% 29.98 in 10.0 mi WNW 5.8 mph - N/A   Clear
9:56 AM 53.6 °F - 37.4 °F 54% 29.98 in 10.0 mi NW 8.1 mph - N/A   Clear
10:16 AM 53.6 °F - 35.6 °F 51% 29.98 in 10.0 mi West 6.9 mph - N/A   Clear
10:36 AM 55.4 °F - 37.4 °F 51% 29.97 in 10.0 mi West 5.8 mph - N/A   Clear
10:56 AM 55.4 °F - 37.4 °F 51% 29.97 in 10.0 mi West 5.8 mph - N/A   Clear
11:16 AM 55.4 °F - 37.4 °F 51% 29.97 in 10.0 mi WNW 4.6 mph - N/A   Clear
11:36 AM 57.2 °F - 37.4 °F 48% 29.97 in 10.0 mi NNW 4.6 mph - N/A   Clear
11:56 AM 57.2 °F - 37.4 °F 48% 29.96 in 10.0 mi NW 5.8 mph - N/A   Clear
12:16 PM 59.0 °F - 37.4 °F 45% 29.96 in 10.0 mi West 5.8 mph - N/A   Clear
12:36 PM 59.0 °F - 37.4 °F 45% 29.96 in 10.0 mi WSW 5.8 mph - N/A   Clear
12:56 PM 59.0 °F - 37.4 °F 45% 29.96 in 10.0 mi WNW 5.8 mph - N/A   Clear
1:16 PM 59.0 °F - 37.4 °F 45% 29.95 in 10.0 mi NW 5.8 mph - N/A   Clear
1:36 PM 60.8 °F - 39.2 °F 45% 29.95 in 10.0 mi WNW 4.6 mph - N/A   Clear
1:56 PM 59.0 °F - 41.0 °F 51% 29.94 in 10.0 mi NW 8.1 mph - N/A   Clear
2:16 PM 57.2 °F - 42.8 °F 59% 29.94 in 10.0 mi NNW 8.1 mph - N/A   Clear
2:36 PM 59.0 °F - 41.0 °F 51% 29.93 in 10.0 mi NNW 6.9 mph - N/A   Clear
2:56 PM 60.8 °F - 42.8 °F 52% 29.93 in 10.0 mi NNW 6.9 mph - N/A   Clear
3:16 PM 57.2 °F - 39.2 °F 51% 29.93 in 10.0 mi NW 6.9 mph - N/A   Clear
3:36 PM 59.0 °F - 41.0 °F 51% 29.93 in 10.0 mi NNW 5.8 mph - N/A   Clear
3:56 PM 62.6 °F - 41.0 °F 45% 29.92 in 10.0 mi WNW 6.9 mph - N/A   Clear
4:16 PM 62.6 °F - 39.2 °F 42% 29.92 in 10.0 mi WNW 5.8 mph - N/A   Clear
4:36 PM 62.6 °F - 39.2 °F 42% 29.92 in 10.0 mi WNW 6.9 mph - N/A   Clear
4:56 PM 62.6 °F - 39.2 °F 42% 29.92 in 10.0 mi West 8.1 mph - N/A   Clear
5:16 PM 60.8 °F - 39.2 °F 45% 29.91 in 10.0 mi West 5.8 mph - N/A   Clear
5:36 PM 62.6 °F - 39.2 °F 42% 29.92 in 10.0 mi West 8.1 mph - N/A   Clear
5:56 PM 62.6 °F - 39.2 °F 42% 29.92 in 10.0 mi West 8.1 mph - N/A   Clear
6:16 PM 62.6 °F - 37.4 °F 39% 29.92 in 10.0 mi West 6.9 mph - N/A   Clear
6:36 PM 62.6 °F - 39.2 °F 42% 29.91 in 10.0 mi West 8.1 mph - N/A   Clear
6:56 PM 62.6 °F - 39.2 °F 42% 29.91 in 10.0 mi WNW 8.1 mph - N/A   Clear
7:16 PM 60.8 °F - 39.2 °F 45% 29.92 in 10.0 mi WNW 6.9 mph - N/A   Clear
7:36 PM 60.8 °F - 39.2 °F 45% 29.92 in 10.0 mi NW 9.2 mph - N/A   Clear
7:56 PM 59.0 °F - 39.2 °F 48% 29.92 in 10.0 mi WNW 6.9 mph - N/A   Clear
8:16 PM 60.8 °F - 37.4 °F 42% 29.92 in 10.0 mi NW 8.1 mph - N/A   Clear
8:36 PM 57.2 °F - 39.2 °F 51% 29.92 in 10.0 mi WNW 10.4 mph - N/A   Clear
8:56 PM 57.2 °F - 39.2 °F 51% 29.92 in 10.0 mi WNW 6.9 mph - N/A   Clear
9:16 PM 57.2 °F - 39.2 °F 51% 29.92 in 10.0 mi WSW 5.8 mph - N/A   Clear
9:36 PM 55.4 °F - 37.4 °F 51% 29.92 in 10.0 mi WSW 4.6 mph - N/A   Clear
9:56 PM 57.2 °F - 37.4 °F 48% 29.93 in 10.0 mi West 3.5 mph - N/A   Clear
10:16 PM 55.4 °F - 37.4 °F 51% 29.93 in 10.0 mi NNW 4.6 mph - N/A   Clear
10:36 PM 53.6 °F - 39.2 °F 58% 29.93 in 10.0 mi NNE 3.5 mph - N/A   Clear
10:56 PM 53.6 °F - 39.2 °F 58% 29.93 in 10.0 mi Calm Calm - N/A   Clear
11:16 PM 53.6 °F - 39.2 °F 58% 29.93 in 10.0 mi Calm Calm - N/A   Overcast
11:36 PM 53.6 °F - 39.2 °F 58% 29.93 in 10.0 mi Calm Calm - N/A   Overcast
11:56 PM 53.6 °F - 39.2 °F 58% 29.93 in 10.0 mi Calm Calm - N/A   Overcast